Wind_Speed
125 124 121 121 120 122 124 124 119 105 96 94 96 90 86 87 81 82 83 79 80 76 74 72 70 65 62 57 54 51 49 48 45 41 39 41 45 44 47 47 50 54 56 60
122 125 125 123 121 115 115 116 114 112 101 96 98 97 96 96 90 83 80 79 79 76 73 71 68 66 62 56 51 50 48 48 49 45 44 40 37 37 43 49 53 53 59 61
126 134 131 125 120 121 121 113 109 108 104 103 100 97 101 105 91 86 87 87 82 80 77 78 71 66 61 57 54 51 49 49 52 49 48 44 45 43 44 45 50 55 60 65
135 129 129 124 127 126 117 114 108 98 95 94 99 98 96 101 94 92 90 85 86 81 81 77 71 65 60 58 53 53 52 53 53 56 53 47 45 45 52 54 55 59 64 65
131 134 132 127 122 114 115 108 103 103 102 103 104 103 104 103 97 86 85 88 84 79 81 80 77 74 66 58 52 52 54 55 56 56 57 56 55 52 52 55 57 60 62 63
125 130 130 130 128 125 120 110 111 111 111 109 110 107 108 112 103 101 99 97 90 87 82 80 80 73 71 69 65 58 55 57 57 59 60 59 57 56 57 57 58 59 62 65
118 125 125 137 138 134 133 120 120 118 113 114 114 109 106 107 105 102 101 100 99 94 91 81 77 76 71 69 69 67 61 58 57 58 56 56 56 56 58 58 59 60 60 61
104 114 118 138 148 151 148 137 138 133 126 123 124 124 115 110 107 104 104 105 102 102 97 94 84 76 79 72 74 73 66 63 63 59 58 57 58 56 57 58 60 64 64 63
94 100 108 122 137 149 151 150 146 138 137 139 140 135 126 124 118 114 114 112 109 110 107 103 98 91 81 80 77 75 72 70 70 71 69 64 56 58 58 62 65 69 70 73
84 87 100 111 118 137 146 147 150 154 149 144 141 135 133 130 125 124 122 120 119 117 117 108 103 105 97 91 85 81 80 78 75 75 76 79 79 76 70 70 70 74 74 74
75 82 89 98 105 119 131 140 140 149 153 157 154 150 145 139 131 130 128 123 122 118 113 113 111 110 107 108 96 89 85 83 82 79 79 81 81 80 75 78 79 84 79 76
64 77 80 84 92 102 110 116 121 133 141 145 146 149 152 154 152 149 146 134 127 120 122 122 121 119 118 115 109 98 92 88 83 81 85 85 84 81 83 87 89 87 87 86
58 66 68 72 81 91 94 99 105 112 122 129 133 140 146 150 155 156 155 149 144 131 126 125 127 125 126 125 120 108 101 98 97 96 92 91 88 87 90 91 92 91 93 94
50 55 58 64 70 78 84 86 90 92 100 110 113 118 122 128 137 143 149 150 150 147 142 136 132 130 125 124 123 123 118 114 104 101 100 98 97 97 93 93 95 94 95 97
49 52 50 56 60 66 71 74 76 77 82 87 92 95 102 100 105 112 121 132 138 147 152 152 145 140 141 140 135 136 134 129 119 110 107 103 102 100 97 95 96 96 96 95
44 43 44 49 55 61 66 68 67 67 68 71 74 82 87 87 89 94 99 104 111 111 120 132 140 142 150 151 146 144 141 131 127 117 111 106 104 101 100 98 96 97 96 96
39 39 38 41 46 55 62 61 62 60 58 60 65 69 72 75 78 80 83 88 92 92 96 104 105 121 129 137 142 144 146 136 132 126 114 101 101 103 102 102 99 99 99 97
34 35 36 37 42 47 52 51 51 49 50 56 58 59 61 63 65 69 72 76 75 76 80 85 90 92 103 107 106 113 135 144 138 124 112 104 95 98 100 99 99 98 98 99
35 35 35 36 40 44 48 47 46 46 48 50 52 55 56 57 58 59 60 60 63 66 72 80 83 86 85 88 90 94 98 118 133 130 123 117 107 93 94 93 96 97 98 102
36 35 36 37 37 39 43 45 42 39 39 41 44 48 50 55 55 55 55 56 58 62 72 70 74 77 79 81 80 79 84 95 105 118 123 122 116 105 93 89 89 92 99 101
31 29 28 31 33 34 38 39 38 38 35 33 38 43 47 49 49 50 51 53 56 59 64 66 68 70 74 77 80 80 84 87 87 95 105 109 112 113 109 102 100 103 103 102
28 28 27 27 26 25 27 30 32 34 30 29 37 41 42 43 43 45 47 50 51 53 56 58 59 60 62 68 68 72 74 78 81 87 93 96 102 105 106 105 100 100 103 104
26 27 26 25 24 23 22 24 27 27 26 26 33 35 39 39 38 39 40 41 43 47 49 48 49 50 50 50 54 61 64 68 75 81 84 88 89 89 90 91 93 96 97 94
24 24 24 23 22 21 18 17 20 22 25 25 29 31 34 34 36 36 36 36 38 39 41 43 46 49 53 56 55 55 60 67 73 76 74 69 72 75 81 75 70 64 70 69
23 22 21 21 19 16 15 19 22 24 25 26 27 29 29 30 29 28 29 32 33 34 36 42 47 51 53 54 54 56 55 55 53 55 53 62 51 42 43 43 53 62 63 68
21 19 17 18 18 16 13 20 23 24 25 27 27 28 27 27 27 28 29 29 31 34 37 41 46 47 46 45 47 49 49 49 52 53 56 58 58 56 55 56 67 65 67 68
21 18 15 16 18 17 16 19 21 23 26 28 30 29 29 30 29 31 29 31 35 39 45 47 47 53 54 51 50 48 47 58 59 56 59 62 62 65 69 73 75 73 76 80
Wind_Direction
224 222 226 231 234 234 236 236 238 237 234 234 236 238 242 243 242 240 243 247 252 251 251 255 258 261 264 268 264 258 253 258 262 263 261 255 253 255 248 251 252 259 268 269
222 224 225 229 233 235 240 240 238 240 239 238 240 241 243 242 244 247 250 249 251 251 253 257 256 260 262 265 264 258 248 256 256 262 266 262 258 256 255 254 256 263 262 264
219 224 224 225 230 234 237 240 243 243 240 240 242 243 245 247 247 250 251 252 251 251 255 256 256 256 257 261 262 258 249 258 249 249 256 263 259 258 259 258 257 256 259 265
219 222 226 225 228 232 234 237 240 241 239 238 239 242 247 251 252 251 251 249 247 250 252 252 250 249 249 251 254 256 253 256 253 249 247 252 258 257 256 253 256 260 262 264
222 222 222 225 225 228 231 230 231 231 233 237 239 241 242 246 250 247 248 251 246 244 246 248 248 246 242 245 247 252 256 253 255 252 255 254 249 248 253 255 256 258 260 264
224 224 222 221 225 227 229 225 226 229 233 234 239 241 237 240 242 246 247 251 250 249 246 246 248 249 248 247 249 248 253 256 255 256 257 258 260 260 259 262 265 267 270 274
225 225 223 220 223 227 228 225 227 228 229 234 234 235 235 238 242 244 246 248 251 249 251 247 246 246 247 246 249 250 251 254 252 257 259 259 260 263 265 267 269 271 273 273
227 228 223 222 224 226 228 229 229 231 231 233 238 240 233 234 237 239 240 241 242 246 248 251 250 244 246 245 247 249 248 249 247 253 255 261 264 266 268 267 270 268 268 269
228 229 228 226 230 231 232 230 230 233 234 234 236 238 239 238 238 239 239 240 241 244 246 250 252 249 247 246 245 246 246 244 245 241 245 254 252 255 261 263 263 265 268 270
229 229 228 229 229 233 234 234 232 233 232 236 238 239 239 240 240 240 239 242 244 245 248 251 249 250 250 250 247 248 245 245 246 247 246 244 243 249 258 261 261 263 267 272
226 229 229 230 230 233 234 236 234 234 235 236 237 237 237 239 241 246 246 242 243 247 246 249 252 250 248 254 251 248 248 246 245 247 250 252 253 253 256 258 261 266 270 271
230 233 234 234 236 236 238 239 239 239 240 241 242 242 242 241 242 243 244 246 247 244 246 248 250 252 254 256 256 253 248 248 246 249 248 250 253 255 254 256 261 265 266 270
232 236 237 237 238 241 240 240 240 239 241 243 244 245 245 244 243 243 245 246 244 243 246 247 249 251 253 256 258 256 253 252 250 253 254 253 252 254 255 257 260 263 266 269
237 241 240 239 241 242 244 243 243 242 241 243 244 246 245 244 245 246 246 247 246 242 242 242 244 248 248 251 254 257 253 255 252 250 252 253 254 255 257 259 261 264 267 270
235 238 241 243 243 244 247 246 244 243 243 242 244 246 247 246 244 244 243 245 246 244 243 243 242 243 246 247 247 249 251 253 254 252 250 252 252 253 255 259 260 262 267 270
237 238 233 236 240 243 245 248 249 247 245 244 243 244 244 245 244 243 243 242 244 243 242 243 244 244 244 244 248 250 252 253 256 256 253 250 251 251 253 256 259 262 266 270
246 246 245 245 242 243 246 248 250 250 250 249 247 245 244 245 244 243 242 242 243 242 241 241 241 243 245 244 245 247 250 251 254 255 255 251 249 249 250 253 255 258 263 267
256 255 253 249 247 246 249 248 249 247 246 248 248 249 249 247 245 246 246 244 243 242 243 242 242 240 241 244 245 243 244 247 247 250 250 253 251 248 249 251 253 256 260 263
263 262 259 254 249 249 250 248 246 241 235 239 242 246 247 247 245 244 245 245 243 239 237 236 236 235 235 237 238 237 237 240 243 245 248 249 250 246 248 249 252 255 261 264
254 255 255 254 250 248 250 251 250 243 240 241 245 244 244 243 244 244 243 239 236 232 234 234 233 232 231 231 232 229 231 234 237 240 242 244 246 249 249 248 252 255 260 265
258 259 256 254 250 246 247 252 252 250 248 240 236 238 238 240 239 239 237 234 232 230 231 231 229 229 229 230 229 227 229 230 232 234 238 239 243 246 249 252 255 257 258 261
263 263 260 258 255 252 244 242 243 244 241 235 232 234 235 235 232 230 229 226 226 225 227 229 229 227 225 226 225 225 226 228 229 229 232 236 239 242 245 249 252 255 257 261
265 260 261 260 255 252 245 238 239 243 240 235 238 233 226 228 228 225 223 220 218 220 221 221 221 221 220 218 216 218 220 223 224 225 227 232 237 239 243 246 250 253 256 261
267 263 261 257 254 251 239 235 236 231 226 226 227 224 222 221 221 217 215 213 214 215 211 210 207 206 205 208 210 210 213 216 220 222 227 235 239 244 246 250 252 249 248 248
264 264 263 259 255 243 240 224 220 217 216 216 215 213 211 210 207 205 207 207 207 202 204 202 202 202 202 195 197 202 205 209 213 220 220 222 220 229 231 232 235 237 241 250
263 262 266 263 250 234 237 228 222 212 207 208 211 207 200 198 196 198 196 191 193 191 190 197 197 194 184 179 182 188 192 195 199 201 202 214 223 220 225 232 240 245 246 248
267 262 261 261 247 229 214 222 221 211 204 205 204 195 198 200 203 190 188 182 183 183 183 179 176 173 175 176 180 179 185 195 196 206 208 212 220 226 230 230 237 242 248 249
Height
10311 10326 10334 10344 10357 10373 10387 10400 10411 10449 10466 10471 10476 10482 10491 10500 10517 10520 10525 10536 10542 10553 10564 10569 10575 10582 10586 10593 10596 10598 10602 10607 10612 10617 10620 10624 10627 10630 10633 10635 10638 10637 10639 10636
10288 10303 10316 10322 10340 10360 10373 10388 10406 10424 10448 10455 10462 10470 10473 10474 10491 10510 10518 10527 10533 10541 10550 10556 10561 10567 10571 10577 10580 10584 10589 10593 10599 10604 10608 10612 10616 10619 10622 10623 10624 10626 10626 10625
10264 10277 10286 10312 10332 10343 10354 10370 10387 10407 10425 10429 10439 10450 10453 10452 10484 10496 10501 10510 10516 10521 10532 10539 10547 10553 10556 10561 10566 10569 10574 10579 10586 10591 10594 10598 10602 10605 10607 10609 10612 10613 10614 10613
10249 10251 10273 10307 10307 10322 10343 10358 10372 10386 10395 10406 10422 10430 10433 10436 10460 10468 10478 10488 10495 10502 10507 10517 10528 10535 10542 10543 10549 10555 10560 10564 10569 10576 10581 10586 10589 10592 10595 10597 10600 10601 10601 10601
10225 10238 10268 10283 10298 10304 10315 10335 10348 10361 10371 10383 10395 10407 10420 10419 10424 10437 10448 10457 10471 10483 10489 10497 10505 10514 10524 10531 10536 10543 10546 10550 10556 10560 10565 10570 10576 10580 10583 10586 10588 10589 10589 10587
10205 10225 10248 10270 10270 10281 10288 10314 10325 10336 10343 10358 10367 10381 10392 10392 10407 10411 10419 10433 10447 10458 10470 10479 10488 10496 10507 10516 10521 10528 10533 10536 10542 10548 10553 10556 10560 10564 10568 10571 10572 10574 10573 10572
10180 10195 10232 10253 10243 10241 10255 10294 10295 10308 10323 10323 10334 10346 10362 10371 10378 10394 10403 10412 10419 10436 10446 10461 10473 10482 10489 10500 10504 10506 10517 10521 10527 10532 10537 10542 10546 10550 10552 10555 10557 10558 10558 10556
10161 10174 10212 10218 10215 10218 10223 10255 10267 10282 10296 10302 10304 10314 10340 10349 10358 10369 10381 10387 10403 10410 10422 10435 10449 10467 10470 10483 10481 10491 10501 10506 10512 10516 10522 10527 10531 10535 10538 10542 10543 10544 10543 10543
10137 10160 10185 10195 10190 10193 10202 10231 10243 10252 10263 10272 10282 10294 10312 10324 10337 10348 10358 10368 10387 10393 10400 10415 10427 10440 10454 10458 10467 10472 10482 10489 10495 10501 10510 10512 10517 10521 10523 10527 10528 10528 10528 10528
10117 10145 10151 10153 10174 10166 10175 10196 10220 10223 10240 10247 10258 10272 10283 10291 10305 10319 10333 10346 10358 10370 10383 10397 10406 10408 10428 10433 10447 10455 10463 10470 10478 10485 10492 10495 10500 10506 10509 10512 10512 10512 10510 10508
10109 10117 10121 10130 10143 10138 10145 10159 10185 10195 10207 10218 10226 10241 10253 10265 10279 10284 10303 10327 10333 10346 10366 10373 10376 10379 10395 10406 10419 10437 10442 10449 10458 10467 10473 10476 10482 10488 10492 10494 10495 10494 10492 10492
10099 10092 10102 10114 10118 10125 10131 10142 10163 10175 10181 10194 10203 10210 10222 10236 10254 10263 10272 10287 10300 10327 10335 10342 10345 10354 10358 10373 10390 10413 10424 10430 10439 10444 10450 10456 10462 10470 10472 10474 10474 10476 10474 10475
10080 10079 10089 10098 10098 10099 10108 10119 10130 10143 10151 10154 10168 10175 10191 10207 10221 10227 10236 10256 10276 10299 10304 10313 10317 10329 10331 10338 10362 10381 10397 10406 10414 10420 10430 10436 10444 10449 10449 10454 10455 10457 10457 10456
10062 10065 10074 10078 10080 10079 10081 10091 10099 10114 10127 10127 10135 10142 10151 10165 10181 10191 10203 10218 10234 10255 10265 10278 10288 10300 10311 10313 10328 10347 10356 10373 10386 10396 10403 10412 10422 10426 10430 10435 10437 10439 10438 10439
10044 10049 10058 10060 10063 10063 10062 10067 10075 10088 10096 10102 10109 10116 10119 10132 10143 10152 10166 10173 10188 10206 10224 10239 10256 10272 10277 10282 10298 10300 10319 10340 10358 10366 10376 10389 10396 10404 10409 10415 10418 10419 10421 10422
10031 10037 10043 10044 10046 10047 10047 10048 10054 10064 10073 10079 10088 10091 10091 10101 10111 10120 10131 10142 10145 10165 10191 10195 10207 10234 10246 10246 10254 10265 10282 10314 10326 10337 10349 10364 10373 10381 10387 10393 10398 10400 10402 10401
10019 10022 10027 10031 10034 10032 10029 10034 10039 10047 10054 10059 10062 10066 10073 10080 10088 10096 10105 10111 10119 10135 10149 10159 10177 10184 10188 10208 10220 10244 10251 10279 10296 10310 10323 10337 10348 10356 10363 10370 10377 10380 10382 10381
10007 10010 10013 10014 10016 10017 10017 10021 10024 10030 10036 10038 10043 10048 10054 10060 10067 10072 10079 10088 10102 10114 10122 10134 10142 10151 10159 10169 10184 10209 10229 10244 10268 10285 10296 10305 10320 10330 10339 10349 10354 10361 10362 10359
9993 9995 9996 9998 10001 10001 10000 10003 10007 10013 10017 10020 10027 10031 10035 10041 10047 10052 10059 10069 10079 10090 10094 10095 10107 10116 10133 10144 10155 10176 10202 10215 10233 10253 10266 10279 10294 10306 10315 10327 10334 10339 10338 10336
9982 9984 9985 9985 9987 9988 9987 9989 9994 9999 10003 10010 10014 10017 10021 10024 10030 10037 10045 10052 10057 10063 10061 10078 10085 10096 10108 10116 10130 10154 10177 10190 10205 10222 10239 10254 10268 10281 10294 10304 10311 10316 10317 10314
9973 9975 9975 9975 9976 9978 9979 9980 9983 9986 9991 9997 10000 10003 10007 10012 10018 10024 10031 10036 10039 10046 10052 10062 10072 10084 10096 10107 10117 10138 10152 10165 10182 10198 10213 10230 10245 10260 10271 10280 10287 10291 10294 10296
9964 9965 9965 9966 9968 9970 9970 9971 9974 9977 9981 9987 9989 9991 9994 10000 10005 10012 10018 10023 10029 10034 10039 10049 10062 10073 10082 10090 10107 10121 10134 10149 10164 10179 10195 10211 10223 10234 10246 10257 10265 10270 10272 10276
9956 9956 9957 9959 9960 9961 9963 9966 9968 9970 9973 9976 9979 9982 9985 9990 9996 10001 10007 10013 10020 10025 10031 10039 10049 10058 10070 10082 10092 10106 10121 10137 10151 10165 10179 10190 10204 10216 10226 10233 10241 10248 10253 10256
9949 9950 9950 9951 9954 9956 9958 9961 9961 9963 9965 9967 9969 9974 9980 9984 9988 9993 9999 10005 10012 10019 10026 10034 10041 10050 10060 10072 10082 10096 10111 10126 10138 10151 10167 10180 10191 10199 10207 10218 10224 10230 10234 10235
9943 9944 9945 9947 9948 9950 9953 9953 9954 9957 9959 9961 9964 9968 9973 9979 9985 9991 9997 10002 10007 10013 10022 10029 10037 10044 10053 10062 10078 10090 10104 10117 10130 10143 10157 10169 10179 10188 10195 10201 10208 10213 10215 10217
9937 9938 9940 9942 9943 9944 9948 9949 9950 9953 9956 9958 9962 9967 9971 9975 9981 9987 9992 9998 10004 10011 10020 10029 10036 10044 10053 10064 10078 10090 10100 10113 10126 10138 10148 10159 10167 10174 10181 10187 10193 10196 10198 10199
9933 9934 9935 9937 9938 9940 9942 9944 9947 9950 9953 9956 9959 9963 9967 9973 9978 9984 9990 9996 10003 10011 10018 10026 10035 10044 10055 10067 10078 10088 10100 10113 10120 10130 10140 10147 10154 10161 10166 10169 10173 10176 10179 10181